This demonstration page uses our WeatherBlox Daily Observations layout. Learn more.

Left ArrowRight Arrow

Hourly Observations for October 19, 2015

Temp ( °F °C ) Dew Point ( °F °C ) Humidity (%) Winds ( mph kmh ) Pressure ( in mb ) Visibility ( mi km ) Precip ( " mm )
12:53 am 00:53 Clear 30 -1.1 28 -2.2 92 92 Calm 30.44 1031 10 16 0.00 0.00
1:53 am 01:53 Clear 29 -1.7 26 -3.3 89 89 Calm 30.44 1031 10 16 0.00 0.00
2:53 am 02:53 Clear 29 -1.7 25 -3.9 85 85 Calm 30.45 1031 10 16 0.00 0.00
3:53 am 03:53 Clear 29 -1.7 27 -2.8 92 92 Calm 30.45 1031 10 16 0.00 0.00
4:53 am 04:53 Clear 28 -2.2 27 -2.8 96 96 Calm 30.45 1031 10 16 0.00 0.00
5:53 am 05:53 Clear 27 -2.8 25 -3.9 92 92 Calm 30.47 1032 10 16 0.00 0.00
6:53 am 06:53 Clear 27 -2.8 25 -3.9 92 92 Calm 30.47 1032 10 16 0.00 0.00
7:53 am 07:53 Sunny 27 -2.8 25 -3.9 92 92 Calm 30.47 1032 10 16 0.00 0.00
8:53 am 08:53 Sunny 33 0.6 30 -1.1 89 89 Calm 30.47 1032 10 16 0.00 0.00
9:53 am 09:53 Sunny 44 6.7 38 3.3 79 79 E 3 6 30.46 1031 10 16 0.00 0.00
10:53 am 10:53 Sunny 53 11.7 34 1.1 48 48 Calm 30.45 1031 10 16 0.00 0.00
11:53 am 11:53 Sunny 60 15.6 30 -1.1 32 32 SW 9 15 30.43 1031 10 16 0.00 0.00
12:53 pm 12:53 Sunny 61 16.1 28 -2.2 29 29 SSW 12 19 30.40 1030 10 16 0.00 0.00
1:53 pm 13:53 Sunny 64 17.8 29 -1.7 27 27 SSW 9 15 30.36 1028 10 16 0.00 0.00
2:53 pm 14:53 Sunny 66 18.9 30 -1.1 26 26 VRB 6 9 30.33 1027 10 16 0.00 0.00
3:53 pm 15:53 Sunny 67 19.4 29 -1.7 24 24 S 8 13 30.30 1026 10 16 0.00 0.00
4:53 pm 16:53 Sunny 67 19.4 30 -1.1 25 25 S 7 11 30.29 1026 10 16 0.00 0.00
5:53 pm 17:53 Sunny 66 18.9 30 -1.1 26 26 VRB 7 11 30.27 1025 10 16 0.00 0.00
6:53 pm 18:53 Sunny 62 16.7 30 -1.1 30 30 S 5 7 30.27 1025 10 16 0.00 0.00
7:53 pm 19:53 Clear 55 12.8 31 -0.6 40 40 SSW 3 6 30.27 1025 10 16 0.00 0.00
8:53 pm 20:53 Clear 46 7.8 32 0 58 58 Calm 30.29 1026 10 16 0.00 0.00
9:53 pm 21:53 Clear 49 9.4 32 0 52 52 E 3 6 30.27 1025 10 16 0.00 0.00
10:53 pm 22:53 Clear 44 6.7 32 0 63 63 Calm 30.27 1025 10 16 0.00 0.00
11:53 pm 23:53 Clear 41 5 32 0 70 70 SE 3 6 30.27 1025 10 16 0.00 0.00

Powered by AerisWeather